Time,TemperatureF,DewpointF,PressureIn,WindDirection,WindDirectionDegrees,WindSpeedMPH,WindSpeedGustMPH,Humidity,HourlyPrecipIn,Conditions,Clouds,dailyrainin,SoftwareType,DateUTC
2013-02-22 00:04:00,19.2,16.5,30.26,NE,48,2.0,4.0,89,0.00,,,0.00,VWS V12.07,2013-02-22 06:04:00,
2013-02-22 00:09:00,19.2,16.5,30.26,NNE,24,4.0,6.0,89,0.00,,,0.00,VWS V12.07,2013-02-22 06:09:00,
2013-02-22 00:14:00,19.2,16.5,30.26,NE,49,4.0,6.0,89,0.00,,,0.00,VWS V12.07,2013-02-22 06:14:00,
2013-02-22 00:24:00,19.2,16.2,30.26,NE,36,5.0,6.0,88,0.00,,,0.00,VWS V12.07,2013-02-22 06:24:00,
2013-02-22 00:29:00,19.2,16.2,30.25,NE,41,3.0,6.0,88,0.00,,,0.00,VWS V12.07,2013-02-22 06:29:00,
2013-02-22 00:34:00,19.2,16.2,30.25,NE,51,1.0,3.0,88,0.00,,,0.00,VWS V12.07,2013-02-22 06:34:00,
2013-02-22 00:39:00,19.2,16.2,30.25,NNW,330,1.0,5.0,88,0.00,,,0.00,VWS V12.07,2013-02-22 06:39:00,
2013-02-22 00:44:00,19.1,16.1,30.25,ENE,60,1.0,5.0,88,0.00,,,0.00,VWS V12.07,2013-02-22 06:44:00,
2013-02-22 00:54:00,19.1,16.1,30.25,North,9,1.0,6.0,88,0.00,,,0.00,VWS V12.07,2013-02-22 06:54:00,
2013-02-22 00:59:00,19.1,16.1,30.24,NNE,33,2.0,6.0,88,0.00,,,0.00,VWS V12.07,2013-02-22 06:59:00,
2013-02-22 01:04:00,19.2,16.2,30.24,North,360,2.0,2.0,88,0.00,,,0.00,VWS V12.07,2013-02-22 07:04:00,
2013-02-22 01:09:00,19.1,16.1,30.25,ENE,69,2.0,3.0,88,0.00,,,0.00,VWS V12.07,2013-02-22 07:09:00,
2013-02-22 01:14:00,19.1,16.1,30.25,ENE,64,4.0,4.0,88,0.00,,,0.00,VWS V12.07,2013-02-22 07:14:00,
2013-02-22 01:19:00,19.1,16.1,30.24,NNE,24,2.0,6.0,88,0.00,,,0.00,VWS V12.07,2013-02-22 07:19:00,
2013-02-22 01:24:00,19.1,16.1,30.24,NE,42,2.0,6.0,88,0.00,,,0.00,VWS V12.07,2013-02-22 07:24:00,
2013-02-22 01:29:00,19.1,16.1,30.24,NE,38,1.0,6.0,88,0.00,,,0.00,VWS V12.07,2013-02-22 07:29:00,
2013-02-22 01:34:00,19.1,16.1,30.24,NE,37,1.0,3.0,88,0.00,,,0.00,VWS V12.07,2013-02-22 07:34:00,
2013-02-22 01:39:00,19.1,16.1,30.24,NE,48,0.0,3.0,88,0.00,,,0.00,VWS V12.07,2013-02-22 07:39:00,
2013-02-22 01:44:00,19.1,16.1,30.24,NE,38,1.0,4.0,88,0.00,,,0.00,VWS V12.07,2013-02-22 07:44:00,
2013-02-22 01:49:00,19.0,16.0,30.24,NNE,30,3.0,6.0,88,0.00,,,0.00,VWS V12.07,2013-02-22 07:49:00,
2013-02-22 01:54:00,19.0,16.0,30.24,NNE,32,5.0,6.0,88,0.00,,,0.00,VWS V12.07,2013-02-22 07:54:00,
2013-02-22 01:59:00,19.0,16.0,30.23,NE,36,0.0,6.0,88,0.00,,,0.00,VWS V12.07,2013-02-22 07:59:00,
2013-02-22 02:09:00,18.9,15.9,30.23,NNE,32,0.0,3.0,88,0.00,,,0.00,VWS V12.07,2013-02-22 08:09:00,
2013-02-22 02:14:00,18.9,15.9,30.23,NE,55,0.0,7.0,88,0.00,,,0.00,VWS V12.07,2013-02-22 08:14:00,
2013-02-22 02:19:00,18.9,15.9,30.22,NE,53,2.0,7.0,88,0.00,,,0.00,VWS V12.07,2013-02-22 08:19:00,
2013-02-22 02:24:00,18.9,15.9,30.22,NNE,18,2.0,7.0,88,0.00,,,0.00,VWS V12.07,2013-02-22 08:24:00,
2013-02-22 02:29:00,18.8,15.8,30.22,NNE,27,3.0,7.0,88,0.00,,,0.00,VWS V12.07,2013-02-22 08:29:00,
2013-02-22 02:34:00,18.7,15.7,30.21,NE,44,0.0,2.0,88,0.00,,,0.00,VWS V12.07,2013-02-22 08:34:00,
2013-02-22 02:39:00,18.6,15.6,30.21,NE,36,0.0,6.0,88,0.00,,,0.00,VWS V12.07,2013-02-22 08:39:00,
2013-02-22 02:44:00,18.6,15.6,30.20,East,89,2.0,6.0,88,0.00,,,0.00,VWS V12.07,2013-02-22 08:44:00,
2013-02-22 02:49:00,18.5,15.8,30.20,NNE,17,0.0,6.0,89,0.00,,,0.00,VWS V12.07,2013-02-22 08:49:00,
2013-02-22 02:59:00,18.4,15.7,30.19,NE,51,0.0,8.0,89,0.00,,,0.00,VWS V12.07,2013-02-22 08:59:00,
2013-02-22 03:04:00,18.4,15.7,30.19,NE,51,0.0,0.0,89,0.00,,,0.00,VWS V12.07,2013-02-22 09:04:00,
2013-02-22 03:09:00,18.4,15.7,30.18,NE,51,0.0,0.0,89,0.00,,,0.00,VWS V12.07,2013-02-22 09:09:00,
2013-02-22 03:14:00,18.4,15.7,30.18,NE,51,0.0,0.0,89,0.00,,,0.00,VWS V12.07,2013-02-22 09:14:00,
2013-02-22 03:19:00,18.4,15.7,30.17,NE,51,0.0,0.0,89,0.00,,,0.00,VWS V12.07,2013-02-22 09:19:00,
2013-02-22 03:24:00,18.4,15.7,30.17,NE,51,0.0,0.0,89,0.00,,,0.00,VWS V12.07,2013-02-22 09:24:00,
2013-02-22 03:29:00,18.4,15.7,30.16,NE,51,0.0,0.0,89,0.00,,,0.00,VWS V12.07,2013-02-22 09:29:00,
2013-02-22 03:34:00,18.4,15.7,30.15,NE,51,0.0,0.0,89,0.00,,,0.00,VWS V12.07,2013-02-22 09:34:00,
2013-02-22 03:39:00,18.4,15.7,30.15,NE,51,0.0,0.0,89,0.00,,,0.00,VWS V12.07,2013-02-22 09:39:00,
2013-02-22 03:44:00,18.4,15.7,30.15,NE,51,0.0,0.0,89,0.00,,,0.00,VWS V12.07,2013-02-22 09:44:00,
2013-02-22 03:49:00,18.4,15.7,30.14,NE,51,0.0,0.0,89,0.00,,,0.00,VWS V12.07,2013-02-22 09:49:00,
2013-02-22 03:54:00,18.4,15.7,30.14,NE,51,0.0,0.0,89,0.00,,,0.00,VWS V12.07,2013-02-22 09:54:00,
2013-02-22 03:59:00,18.4,15.7,30.14,NE,51,0.0,0.0,89,0.00,,,0.00,VWS V12.07,2013-02-22 09:59:00,
2013-02-22 04:04:00,18.4,15.7,30.14,NE,51,0.0,0.0,89,0.00,,,0.00,VWS V12.07,2013-02-22 10:04:00,
2013-02-22 04:09:00,18.4,15.7,30.13,NE,51,0.0,0.0,89,0.00,,,0.00,VWS V12.07,2013-02-22 10:09:00,
2013-02-22 04:14:00,18.4,15.7,30.13,NE,51,0.0,0.0,89,0.00,,,0.00,VWS V12.07,2013-02-22 10:14:00,
2013-02-22 04:24:00,18.4,15.7,30.12,NE,51,0.0,0.0,89,0.00,,,0.00,VWS V12.07,2013-02-22 10:24:00,
2013-02-22 04:29:00,18.4,15.7,30.12,NE,51,0.0,0.0,89,0.00,,,0.00,VWS V12.07,2013-02-22 10:29:00,
2013-02-22 04:34:00,18.4,15.7,30.11,NE,51,0.0,0.0,89,0.00,,,0.00,VWS V12.07,2013-02-22 10:34:00,
2013-02-22 04:39:00,18.4,15.7,30.11,NE,51,0.0,0.0,89,0.00,,,0.00,VWS V12.07,2013-02-22 10:39:00,
2013-02-22 04:49:00,18.4,15.7,30.11,NE,51,0.0,0.0,89,0.00,,,0.00,VWS V12.07,2013-02-22 10:49:00,
2013-02-22 04:54:00,18.4,15.7,30.11,NE,51,0.0,0.0,89,0.00,,,0.00,VWS V12.07,2013-02-22 10:54:00,
2013-02-22 05:04:00,18.4,15.7,30.10,NE,51,0.0,0.0,89,0.00,,,0.00,VWS V12.07,2013-02-22 11:04:00,
2013-02-22 05:09:00,18.4,15.7,30.10,NE,51,0.0,0.0,89,0.00,,,0.00,VWS V12.07,2013-02-22 11:09:00,
2013-02-22 05:14:00,18.4,15.7,30.09,NE,51,0.0,0.0,89,0.00,,,0.00,VWS V12.07,2013-02-22 11:14:00,
2013-02-22 05:19:00,18.4,15.7,30.09,NE,51,0.0,0.0,89,0.00,,,0.00,VWS V12.07,2013-02-22 11:19:00,
2013-02-22 05:24:00,18.4,15.7,30.09,NE,51,0.0,0.0,89,0.00,,,0.00,VWS V12.07,2013-02-22 11:24:00,
2013-02-22 05:34:00,18.4,15.7,30.08,NE,51,0.0,0.0,89,0.00,,,0.00,VWS V12.07,2013-02-22 11:34:00,
2013-02-22 05:39:00,18.4,15.7,30.08,NE,51,0.0,0.0,89,0.00,,,0.00,VWS V12.07,2013-02-22 11:39:00,
2013-02-22 05:49:00,18.4,15.7,30.08,NE,51,0.0,0.0,89,0.00,,,0.00,VWS V12.07,2013-02-22 11:49:00,
2013-02-22 05:54:00,18.4,15.7,30.07,NE,51,0.0,0.0,89,0.00,,,0.00,VWS V12.07,2013-02-22 11:54:00,
2013-02-22 05:59:00,18.4,15.7,30.06,NE,51,0.0,0.0,89,0.00,,,0.00,VWS V12.07,2013-02-22 11:59:00,
2013-02-22 06:09:00,18.4,15.7,30.05,NE,51,0.0,0.0,89,0.00,,,0.00,VWS V12.07,2013-02-22 12:09:00,
2013-02-22 06:14:00,18.4,15.7,30.04,NE,51,0.0,0.0,89,0.00,,,0.00,VWS V12.07,2013-02-22 12:14:00,
2013-02-22 06:24:00,18.4,15.7,30.04,NE,51,0.0,0.0,89,0.00,,,0.00,VWS V12.07,2013-02-22 12:24:00,
2013-02-22 06:29:00,18.4,15.7,30.04,NE,51,0.0,0.0,89,0.00,,,0.00,VWS V12.07,2013-02-22 12:29:00,
2013-02-22 06:34:00,18.4,15.7,30.04,NE,51,0.0,0.0,89,0.00,,,0.00,VWS V12.07,2013-02-22 12:34:00,
2013-02-22 06:44:00,18.4,15.7,30.04,NE,51,0.0,0.0,89,0.00,,,0.00,VWS V12.07,2013-02-22 12:44:00,
2013-02-22 06:49:00,18.4,15.7,30.04,NE,51,0.0,0.0,89,0.00,,,0.00,VWS V12.07,2013-02-22 12:49:00,
2013-02-22 06:54:00,18.4,15.7,30.04,NE,51,0.0,0.0,89,0.00,,,0.00,VWS V12.07,2013-02-22 12:54:00,
2013-02-22 06:59:00,18.4,15.7,30.04,NE,51,0.0,0.0,89,0.00,,,0.00,VWS V12.07,2013-02-22 12:59:00,
2013-02-22 07:04:00,18.4,15.7,30.04,NE,51,0.0,0.0,89,0.00,,,0.00,VWS V12.07,2013-02-22 13:04:00,
2013-02-22 07:09:00,18.4,15.7,30.04,NE,51,0.0,0.0,89,0.00,,,0.00,VWS V12.07,2013-02-22 13:09:00,
2013-02-22 07:14:00,18.4,15.7,30.03,NE,51,0.0,0.0,89,0.00,,,0.00,VWS V12.07,2013-02-22 13:14:00,
2013-02-22 07:24:00,18.4,15.7,30.03,NE,51,0.0,0.0,89,0.00,,,0.00,VWS V12.07,2013-02-22 13:24:00,
2013-02-22 07:29:00,18.4,15.7,30.04,NE,51,0.0,0.0,89,0.00,,,0.00,VWS V12.07,2013-02-22 13:29:00,
2013-02-22 07:34:00,18.4,15.7,30.03,NE,51,0.0,0.0,89,0.00,,,0.00,VWS V12.07,2013-02-22 13:34:00,
2013-02-22 07:39:00,18.4,15.7,30.04,NE,51,0.0,0.0,89,0.00,,,0.00,VWS V12.07,2013-02-22 13:39:00,
2013-02-22 07:49:00,18.4,15.7,30.03,NE,51,0.0,0.0,89,0.00,,,0.00,VWS V12.07,2013-02-22 13:49:00,
2013-02-22 07:54:00,18.4,15.7,30.03,NE,51,0.0,0.0,89,0.00,,,0.00,VWS V12.07,2013-02-22 13:54:00,
2013-02-22 07:59:00,18.4,15.7,30.03,NE,51,0.0,0.0,89,0.00,,,0.00,VWS V12.07,2013-02-22 13:59:00,
2013-02-22 08:04:00,18.4,15.7,30.03,NE,51,0.0,0.0,89,0.00,,,0.00,VWS V12.07,2013-02-22 14:04:00,
2013-02-22 08:09:00,18.4,15.7,30.03,NE,51,0.0,0.0,89,0.00,,,0.00,VWS V12.07,2013-02-22 14:09:00,
2013-02-22 08:14:00,18.4,15.7,30.03,NE,51,0.0,0.0,89,0.00,,,0.00,VWS V12.07,2013-02-22 14:14:00,
2013-02-22 08:19:00,18.4,15.7,30.03,NE,51,0.0,0.0,89,0.00,,,0.00,VWS V12.07,2013-02-22 14:19:00,
2013-02-22 08:24:00,18.4,15.7,30.03,NE,51,0.0,0.0,89,0.00,,,0.00,VWS V12.07,2013-02-22 14:24:00,
2013-02-22 08:29:00,18.4,15.7,30.03,NE,51,0.0,0.0,89,0.00,,,0.00,VWS V12.07,2013-02-22 14:29:00,
2013-02-22 08:39:00,18.4,15.7,30.02,NE,51,0.0,0.0,89,0.00,,,0.00,VWS V12.07,2013-02-22 14:39:00,
2013-02-22 08:44:00,18.4,15.7,30.02,NE,51,0.0,0.0,89,0.00,,,0.00,VWS V12.07,2013-02-22 14:44:00,
2013-02-22 08:54:00,18.4,15.7,30.02,NE,51,0.0,0.0,89,0.00,,,0.00,VWS V12.07,2013-02-22 14:54:00,
2013-02-22 08:59:00,18.4,15.7,30.02,NE,51,0.0,0.0,89,0.00,,,0.00,VWS V12.07,2013-02-22 14:59:00,
2013-02-22 09:09:00,18.4,15.7,30.02,NE,51,0.0,0.0,89,0.00,,,0.00,VWS V12.07,2013-02-22 15:09:00,
2013-02-22 09:14:00,18.4,15.7,30.02,NE,51,0.0,0.0,89,0.00,,,0.00,VWS V12.07,2013-02-22 15:14:00,
2013-02-22 09:19:00,18.4,15.7,30.02,NE,51,0.0,0.0,89,0.00,,,0.00,VWS V12.07,2013-02-22 15:19:00,
2013-02-22 09:24:00,18.4,15.7,30.02,NE,51,0.0,0.0,89,0.00,,,0.00,VWS V12.07,2013-02-22 15:24:00,
2013-02-22 09:29:00,18.4,15.7,30.02,NE,51,0.0,0.0,89,0.00,,,0.00,VWS V12.07,2013-02-22 15:29:00,
2013-02-22 09:34:00,18.4,15.7,30.02,NE,51,0.0,0.0,89,0.00,,,0.00,VWS V12.07,2013-02-22 15:34:00,
2013-02-22 09:39:00,18.4,15.7,30.01,NE,51,0.0,0.0,89,0.00,,,0.00,VWS V12.07,2013-02-22 15:39:00,
2013-02-22 09:44:00,18.4,15.7,30.01,NE,51,0.0,0.0,89,0.00,,,0.00,VWS V12.07,2013-02-22 15:44:00,
2013-02-22 09:49:00,18.4,15.7,30.01,NE,51,0.0,0.0,89,0.00,,,0.00,VWS V12.07,2013-02-22 15:49:00,
2013-02-22 09:54:00,18.4,15.7,30.01,NE,51,0.0,0.0,89,0.00,,,0.00,VWS V12.07,2013-02-22 15:54:00,
2013-02-22 09:59:00,18.4,15.7,30.01,NE,51,0.0,0.0,89,0.00,,,0.00,VWS V12.07,2013-02-22 15:59:00,
2013-02-22 10:09:00,18.4,15.7,30.01,NE,51,0.0,0.0,89,0.00,,,0.00,VWS V12.07,2013-02-22 16:09:00,
2013-02-22 10:14:00,18.4,15.7,30.01,NE,51,0.0,0.0,89,0.00,,,0.00,VWS V12.07,2013-02-22 16:14:00,
2013-02-22 10:19:00,18.4,15.7,30.01,NE,51,0.0,0.0,89,0.00,,,0.00,VWS V12.07,2013-02-22 16:19:00,
2013-02-22 10:29:00,18.4,15.7,30.01,NE,51,0.0,0.0,89,0.00,,,0.00,VWS V12.07,2013-02-22 16:29:00,
2013-02-22 10:34:00,18.4,15.7,30.00,NE,51,0.0,0.0,89,0.00,,,0.00,VWS V12.07,2013-02-22 16:34:00,
2013-02-22 10:39:00,18.4,15.7,30.00,NE,51,0.0,0.0,89,0.00,,,0.00,VWS V12.07,2013-02-22 16:39:00,
2013-02-22 10:44:00,18.4,15.7,30.00,NE,51,0.0,0.0,89,0.00,,,0.00,VWS V12.07,2013-02-22 16:44:00,
2013-02-22 10:54:00,18.4,15.7,30.00,NE,51,0.0,0.0,89,0.00,,,0.00,VWS V12.07,2013-02-22 16:54:00,
2013-02-22 10:59:00,18.4,15.7,30.00,NE,51,0.0,0.0,89,0.00,,,0.00,VWS V12.07,2013-02-22 16:59:00,
2013-02-22 11:04:00,18.4,15.7,29.99,NE,51,0.0,0.0,89,0.00,,,0.00,VWS V12.07,2013-02-22 17:04:00,
2013-02-22 11:09:00,18.4,15.7,29.99,NE,51,0.0,0.0,89,0.00,,,0.00,VWS V12.07,2013-02-22 17:09:00,
2013-02-22 11:14:00,18.4,15.7,29.99,NE,51,0.0,0.0,89,0.00,,,0.00,VWS V12.07,2013-02-22 17:14:00,
2013-02-22 11:19:00,18.4,15.7,29.99,NE,51,0.0,0.0,89,0.00,,,0.00,VWS V12.07,2013-02-22 17:19:00,
2013-02-22 11:24:00,18.4,15.7,29.99,NE,51,0.0,0.0,89,0.00,,,0.00,VWS V12.07,2013-02-22 17:24:00,
2013-02-22 11:29:00,18.4,15.7,29.99,NE,51,0.0,0.0,89,0.00,,,0.00,VWS V12.07,2013-02-22 17:29:00,
2013-02-22 11:34:00,18.4,15.7,29.98,NE,51,0.0,0.0,89,0.00,,,0.00,VWS V12.07,2013-02-22 17:34:00,
2013-02-22 11:39:00,18.4,15.7,29.98,NE,51,0.0,0.0,89,0.00,,,0.00,VWS V12.07,2013-02-22 17:39:00,
2013-02-22 11:44:00,18.4,15.7,29.98,NE,51,0.0,0.0,89,0.00,,,0.00,VWS V12.07,2013-02-22 17:44:00,
2013-02-22 11:49:00,18.4,15.7,29.98,NE,51,0.0,0.0,89,0.00,,,0.00,VWS V12.07,2013-02-22 17:49:00,
2013-02-22 11:54:00,18.4,15.7,29.98,NE,51,0.0,0.0,89,0.00,,,0.00,VWS V12.07,2013-02-22 17:54:00,
2013-02-22 11:59:00,18.4,15.7,29.98,NE,51,0.0,0.0,89,0.00,,,0.00,VWS V12.07,2013-02-22 17:59:00,
2013-02-22 12:04:00,18.4,15.7,29.98,NE,51,0.0,0.0,89,0.00,,,0.00,VWS V12.07,2013-02-22 18:04:00,
2013-02-22 12:14:00,18.4,15.7,29.97,NE,51,0.0,0.0,89,0.00,,,0.00,VWS V12.07,2013-02-22 18:14:00,
2013-02-22 12:19:00,18.4,15.7,29.97,NE,51,0.0,0.0,89,0.00,,,0.00,VWS V12.07,2013-02-22 18:19:00,
2013-02-22 12:24:00,18.4,15.7,29.97,NE,51,0.0,0.0,89,0.00,,,0.00,VWS V12.07,2013-02-22 18:24:00,
2013-02-22 12:29:00,18.4,15.7,29.96,NE,51,0.0,0.0,89,0.00,,,0.00,VWS V12.07,2013-02-22 18:29:00,
2013-02-22 12:34:00,18.4,15.7,29.96,NE,51,0.0,0.0,89,0.00,,,0.00,VWS V12.07,2013-02-22 18:34:00,
2013-02-22 12:39:00,18.4,15.7,29.96,NE,51,0.0,0.0,89,0.00,,,0.00,VWS V12.07,2013-02-22 18:39:00,
2013-02-22 12:44:00,18.4,15.7,29.95,NE,51,0.0,0.0,89,0.00,,,0.00,VWS V12.07,2013-02-22 18:44:00,
2013-02-22 12:49:00,18.4,15.7,29.95,NE,51,0.0,0.0,89,0.00,,,0.00,VWS V12.07,2013-02-22 18:49:00,
2013-02-22 12:59:00,18.4,15.7,29.95,NE,51,0.0,0.0,89,0.00,,,0.00,VWS V12.07,2013-02-22 18:59:00,
2013-02-22 13:04:00,18.4,15.7,29.95,NE,51,0.0,0.0,89,0.00,,,0.00,VWS V12.07,2013-02-22 19:04:00,
2013-02-22 13:14:00,18.4,15.7,29.94,NE,51,0.0,0.0,89,0.00,,,0.00,VWS V12.07,2013-02-22 19:14:00,
2013-02-22 13:19:00,18.4,15.7,29.94,NE,51,0.0,0.0,89,0.00,,,0.00,VWS V12.07,2013-02-22 19:19:00,
2013-02-22 13:24:00,18.4,15.7,29.94,NE,51,0.0,0.0,89,0.00,,,0.00,VWS V12.07,2013-02-22 19:24:00,
2013-02-22 13:29:00,18.4,15.7,29.94,NE,51,0.0,0.0,89,0.00,,,0.00,VWS V12.07,2013-02-22 19:29:00,
2013-02-22 13:39:00,18.4,15.7,29.93,NE,51,0.0,0.0,89,0.00,,,0.00,VWS V12.07,2013-02-22 19:39:00,
2013-02-22 13:44:00,18.4,15.7,29.93,NE,51,0.0,0.0,89,0.00,,,0.00,VWS V12.07,2013-02-22 19:44:00,
2013-02-22 13:54:00,18.4,15.7,29.93,NE,51,0.0,0.0,89,0.00,,,0.00,VWS V12.07,2013-02-22 19:54:00,
2013-02-22 13:59:00,18.4,15.7,29.93,NE,51,0.0,0.0,89,0.00,,,0.00,VWS V12.07,2013-02-22 19:59:00,
2013-02-22 14:04:00,18.4,15.7,29.93,NE,51,0.0,0.0,89,0.00,,,0.00,VWS V12.07,2013-02-22 20:04:00,
2013-02-22 14:09:00,18.4,15.7,29.93,NE,51,0.0,0.0,89,0.00,,,0.00,VWS V12.07,2013-02-22 20:09:00,
2013-02-22 14:14:00,18.4,15.7,29.92,NE,51,0.0,0.0,89,0.00,,,0.00,VWS V12.07,2013-02-22 20:14:00,
2013-02-22 14:24:00,18.4,15.7,29.92,NE,51,0.0,0.0,89,0.00,,,0.00,VWS V12.07,2013-02-22 20:24:00,
2013-02-22 14:29:00,18.4,15.7,29.92,NE,51,0.0,0.0,89,0.00,,,0.00,VWS V12.07,2013-02-22 20:29:00,
2013-02-22 14:34:00,18.4,15.7,29.92,NE,51,0.0,0.0,89,0.00,,,0.00,VWS V12.07,2013-02-22 20:34:00,
2013-02-22 14:39:00,18.4,15.7,29.92,NE,51,0.0,0.0,89,0.00,,,0.00,VWS V12.07,2013-02-22 20:39:00,
2013-02-22 14:49:00,18.4,15.7,29.92,NE,51,0.0,0.0,89,0.00,,,0.00,VWS V12.07,2013-02-22 20:49:00,
2013-02-22 14:54:00,18.4,15.7,29.92,NE,51,0.0,0.0,89,0.00,,,0.00,VWS V12.07,2013-02-22 20:54:00,
2013-02-22 14:59:00,18.4,15.7,29.92,NE,51,0.0,0.0,89,0.00,,,0.00,VWS V12.07,2013-02-22 20:59:00,
2013-02-22 15:04:00,18.4,15.7,29.92,NE,51,0.0,0.0,89,0.00,,,0.00,VWS V12.07,2013-02-22 21:04:00,
2013-02-22 15:09:00,18.4,15.7,29.92,NE,51,0.0,0.0,89,0.00,,,0.00,VWS V12.07,2013-02-22 21:09:00,
2013-02-22 15:14:00,18.4,15.7,29.92,NE,51,0.0,0.0,89,0.00,,,0.00,VWS V12.07,2013-02-22 21:14:00,
2013-02-22 15:19:00,18.4,15.7,29.92,NE,51,0.0,0.0,89,0.00,,,0.00,VWS V12.07,2013-02-22 21:19:00,
2013-02-22 15:24:00,18.4,15.7,29.92,NE,51,0.0,0.0,89,0.00,,,0.00,VWS V12.07,2013-02-22 21:24:00,
2013-02-22 15:29:00,18.4,15.7,29.92,NE,51,0.0,0.0,89,0.00,,,0.00,VWS V12.07,2013-02-22 21:29:00,
2013-02-22 15:34:00,18.4,15.7,29.92,NE,51,0.0,0.0,89,0.00,,,0.00,VWS V12.07,2013-02-22 21:34:00,
2013-02-22 15:39:00,18.4,15.7,29.92,NE,51,0.0,0.0,89,0.00,,,0.00,VWS V12.07,2013-02-22 21:39:00,
2013-02-22 15:44:00,18.4,15.7,29.92,NE,51,0.0,0.0,89,0.00,,,0.00,VWS V12.07,2013-02-22 21:44:00,
2013-02-22 15:49:00,18.4,15.7,29.92,NE,51,0.0,0.0,89,0.00,,,0.00,VWS V12.07,2013-02-22 21:49:00,
2013-02-22 15:54:00,18.4,15.7,29.92,NE,51,0.0,0.0,89,0.00,,,0.00,VWS V12.07,2013-02-22 21:54:00,
2013-02-22 15:59:00,18.4,15.7,29.92,NE,51,0.0,0.0,89,0.00,,,0.00,VWS V12.07,2013-02-22 21:59:00,
2013-02-22 16:04:00,18.4,15.7,29.92,NE,51,0.0,0.0,89,0.00,,,0.00,VWS V12.07,2013-02-22 22:04:00,
2013-02-22 16:09:00,18.4,15.7,29.92,NE,51,0.0,0.0,89,0.00,,,0.00,VWS V12.07,2013-02-22 22:09:00,
2013-02-22 16:14:00,18.4,15.7,29.92,NE,51,0.0,0.0,89,0.00,,,0.00,VWS V12.07,2013-02-22 22:14:00,
2013-02-22 16:19:00,18.4,15.7,29.92,NE,51,0.0,0.0,89,0.00,,,0.00,VWS V12.07,2013-02-22 22:19:00,
2013-02-22 16:24:00,18.4,15.7,29.92,NE,51,0.0,0.0,89,0.00,,,0.00,VWS V12.07,2013-02-22 22:24:00,
2013-02-22 16:29:00,18.4,15.7,29.92,NE,51,0.0,0.0,89,0.00,,,0.00,VWS V12.07,2013-02-22 22:29:00,
2013-02-22 16:34:00,18.4,15.7,29.92,NE,51,0.0,0.0,89,0.00,,,0.00,VWS V12.07,2013-02-22 22:34:00,
2013-02-22 16:39:00,18.4,15.7,29.92,NE,51,0.0,0.0,89,0.00,,,0.00,VWS V12.07,2013-02-22 22:39:00,
2013-02-22 16:49:00,18.4,15.7,29.92,NE,51,0.0,0.0,89,0.00,,,0.00,VWS V12.07,2013-02-22 22:49:00,
2013-02-22 16:54:00,18.4,15.7,29.92,NE,51,0.0,0.0,89,0.00,,,0.00,VWS V12.07,2013-02-22 22:54:00,
2013-02-22 16:59:00,18.4,15.7,29.92,NE,51,0.0,0.0,89,0.00,,,0.00,VWS V12.07,2013-02-22 22:59:00,
2013-02-22 17:04:00,18.4,15.7,29.92,NE,51,0.0,0.0,89,0.00,,,0.00,VWS V12.07,2013-02-22 23:04:00,
2013-02-22 17:14:00,18.4,15.7,29.92,NE,51,0.0,0.0,89,0.00,,,0.00,VWS V12.07,2013-02-22 23:14:00,
2013-02-22 17:19:00,18.4,15.7,29.92,NE,51,0.0,0.0,89,0.00,,,0.00,VWS V12.07,2013-02-22 23:19:00,
2013-02-22 17:24:00,18.4,15.7,29.92,NE,51,0.0,0.0,89,0.00,,,0.00,VWS V12.07,2013-02-22 23:24:00,
2013-02-22 17:29:00,18.4,15.7,29.92,NE,51,0.0,0.0,89,0.00,,,0.00,VWS V12.07,2013-02-22 23:29:00,
2013-02-22 17:34:00,18.4,15.7,29.92,NE,51,0.0,0.0,89,0.00,,,0.00,VWS V12.07,2013-02-22 23:34:00,
2013-02-22 17:39:00,18.4,15.7,29.92,NE,51,0.0,0.0,89,0.00,,,0.00,VWS V12.07,2013-02-22 23:39:00,
2013-02-22 17:49:00,18.4,15.7,29.92,NE,51,0.0,0.0,89,0.00,,,0.00,VWS V12.07,2013-02-22 23:49:00,
2013-02-22 17:54:00,18.4,15.7,29.92,NE,51,0.0,0.0,89,0.00,,,0.00,VWS V12.07,2013-02-22 23:54:00,
2013-02-22 17:59:00,18.4,15.7,29.92,NE,51,0.0,0.0,89,0.00,,,0.00,VWS V12.07,2013-02-22 23:59:00,
2013-02-22 18:09:00,18.4,15.7,29.92,NE,51,0.0,0.0,89,0.00,,,0.00,VWS V12.07,2013-02-23 00:09:00,
2013-02-22 18:14:00,18.4,15.7,29.92,NE,51,0.0,0.0,89,0.00,,,0.00,VWS V12.07,2013-02-23 00:14:00,
2013-02-22 18:19:00,18.4,15.7,29.92,NE,51,0.0,0.0,89,0.00,,,0.00,VWS V12.07,2013-02-23 00:19:00,
2013-02-22 18:24:00,18.4,15.7,29.92,NE,51,0.0,0.0,89,0.00,,,0.00,VWS V12.07,2013-02-23 00:24:00,
2013-02-22 18:29:00,18.4,15.7,29.92,NE,51,0.0,0.0,89,0.00,,,0.00,VWS V12.07,2013-02-23 00:29:00,
2013-02-22 18:39:00,18.4,15.7,29.92,NE,51,0.0,0.0,89,0.00,,,0.00,VWS V12.07,2013-02-23 00:39:00,
2013-02-22 18:44:00,18.4,15.7,29.92,NE,51,0.0,0.0,89,0.00,,,0.00,VWS V12.07,2013-02-23 00:44:00,
2013-02-22 18:49:00,18.4,15.7,29.93,NE,51,0.0,0.0,89,0.00,,,0.00,VWS V12.07,2013-02-23 00:49:00,
2013-02-22 18:54:00,18.4,15.7,29.92,NE,51,0.0,0.0,89,0.00,,,0.00,VWS V12.07,2013-02-23 00:54:00,
2013-02-22 18:59:00,18.4,15.7,29.92,NE,51,0.0,0.0,89,0.00,,,0.00,VWS V12.07,2013-02-23 00:59:00,
2013-02-22 19:04:00,18.4,15.7,29.92,NE,51,0.0,0.0,89,0.00,,,0.00,VWS V12.07,2013-02-23 01:04:00,
2013-02-22 19:09:00,18.4,15.7,29.92,NE,51,0.0,0.0,89,0.00,,,0.00,VWS V12.07,2013-02-23 01:09:00,
2013-02-22 19:19:00,18.4,15.7,29.92,NE,51,0.0,0.0,89,0.00,,,0.00,VWS V12.07,2013-02-23 01:19:00,
2013-02-22 19:24:00,18.4,15.7,29.92,NE,51,0.0,0.0,89,0.00,,,0.00,VWS V12.07,2013-02-23 01:24:00,
2013-02-22 19:29:00,18.4,15.7,29.92,NE,51,0.0,0.0,89,0.00,,,0.00,VWS V12.07,2013-02-23 01:29:00,
2013-02-22 19:34:00,18.4,15.7,29.92,NE,51,0.0,0.0,89,0.00,,,0.00,VWS V12.07,2013-02-23 01:34:00,
2013-02-22 19:39:00,18.4,15.7,29.92,NE,51,0.0,0.0,89,0.00,,,0.00,VWS V12.07,2013-02-23 01:39:00,
2013-02-22 19:44:00,18.4,15.7,29.92,NE,51,0.0,0.0,89,0.00,,,0.00,VWS V12.07,2013-02-23 01:44:00,
2013-02-22 19:49:00,18.4,15.7,29.92,NE,51,0.0,0.0,89,0.00,,,0.00,VWS V12.07,2013-02-23 01:49:00,
2013-02-22 19:54:00,18.4,15.7,29.92,NE,51,0.0,0.0,89,0.00,,,0.00,VWS V12.07,2013-02-23 01:54:00,
2013-02-22 20:04:00,18.4,15.7,29.91,NE,51,0.0,0.0,89,0.00,,,0.00,VWS V12.07,2013-02-23 02:04:00,
2013-02-22 20:09:00,18.4,15.7,29.91,NE,51,0.0,0.0,89,0.00,,,0.00,VWS V12.07,2013-02-23 02:09:00,
2013-02-22 20:14:00,18.4,15.7,29.91,NE,51,0.0,0.0,89,0.00,,,0.00,VWS V12.07,2013-02-23 02:14:00,
2013-02-22 20:19:00,18.4,15.7,29.91,NE,51,0.0,0.0,89,0.00,,,0.00,VWS V12.07,2013-02-23 02:19:00,
2013-02-22 20:24:00,18.4,15.7,29.91,NE,51,0.0,0.0,89,0.00,,,0.00,VWS V12.07,2013-02-23 02:24:00,
2013-02-22 20:34:00,18.4,15.7,29.91,NE,51,0.0,0.0,89,0.00,,,0.00,VWS V12.07,2013-02-23 02:34:00,
2013-02-22 20:39:00,18.4,15.7,29.91,NE,51,0.0,0.0,89,0.00,,,0.00,VWS V12.07,2013-02-23 02:39:00,
2013-02-22 20:44:00,18.4,15.7,29.91,NE,51,0.0,0.0,89,0.00,,,0.00,VWS V12.07,2013-02-23 02:44:00,
2013-02-22 20:49:00,18.4,15.7,29.91,NE,51,0.0,0.0,89,0.00,,,0.00,VWS V12.07,2013-02-23 02:49:00,
2013-02-22 20:54:00,18.4,15.7,29.91,NE,51,0.0,0.0,89,0.00,,,0.00,VWS V12.07,2013-02-23 02:54:00,
2013-02-22 20:59:00,18.4,15.7,29.91,NE,51,0.0,0.0,89,0.00,,,0.00,VWS V12.07,2013-02-23 02:59:00,
2013-02-22 21:09:00,18.4,15.7,29.90,NE,51,0.0,0.0,89,0.00,,,0.00,VWS V12.07,2013-02-23 03:09:00,
2013-02-22 21:14:00,18.4,15.7,29.91,NE,51,0.0,0.0,89,0.00,,,0.00,VWS V12.07,2013-02-23 03:14:00,
2013-02-22 21:19:00,18.4,15.7,29.90,NE,51,0.0,0.0,89,0.00,,,0.00,VWS V12.07,2013-02-23 03:19:00,
2013-02-22 21:24:00,18.4,15.7,29.90,NE,51,0.0,0.0,89,0.00,,,0.00,VWS V12.07,2013-02-23 03:24:00,
2013-02-22 21:29:00,18.4,15.7,29.90,NE,51,0.0,0.0,89,0.00,,,0.00,VWS V12.07,2013-02-23 03:29:00,
2013-02-22 21:34:00,18.4,15.7,29.90,NE,51,0.0,0.0,89,0.00,,,0.00,VWS V12.07,2013-02-23 03:34:00,
2013-02-22 21:39:00,18.4,15.7,29.90,NE,51,0.0,0.0,89,0.00,,,0.00,VWS V12.07,2013-02-23 03:39:00,
2013-02-22 21:49:00,18.4,15.7,29.90,NE,51,0.0,0.0,89,0.00,,,0.00,VWS V12.07,2013-02-23 03:49:00,
2013-02-22 21:54:00,18.4,15.7,29.90,NE,51,0.0,0.0,89,0.00,,,0.00,VWS V12.07,2013-02-23 03:54:00,
2013-02-22 21:59:00,18.4,15.7,29.90,NE,51,0.0,0.0,89,0.00,,,0.00,VWS V12.07,2013-02-23 03:59:00,
2013-02-22 22:04:00,18.4,15.7,29.90,NE,51,0.0,0.0,89,0.00,,,0.00,VWS V12.07,2013-02-23 04:04:00,
2013-02-22 22:09:00,18.4,15.7,29.90,NE,51,0.0,0.0,89,0.00,,,0.00,VWS V12.07,2013-02-23 04:09:00,
2013-02-22 22:14:00,18.4,15.7,29.90,NE,51,0.0,0.0,89,0.00,,,0.00,VWS V12.07,2013-02-23 04:14:00,
2013-02-22 22:24:00,18.4,15.7,29.90,NE,51,0.0,0.0,89,0.00,,,0.00,VWS V12.07,2013-02-23 04:24:00,
2013-02-22 22:29:00,18.4,15.7,29.90,NE,51,0.0,0.0,89,0.00,,,0.00,VWS V12.07,2013-02-23 04:29:00,
2013-02-22 22:34:00,18.4,15.7,29.90,NE,51,0.0,0.0,89,0.00,,,0.00,VWS V12.07,2013-02-23 04:34:00,
2013-02-22 22:39:00,18.4,15.7,29.89,NE,51,0.0,0.0,89,0.00,,,0.00,VWS V12.07,2013-02-23 04:39:00,
2013-02-22 22:49:00,18.4,15.7,29.90,NE,51,0.0,0.0,89,0.00,,,0.00,VWS V12.07,2013-02-23 04:49:00,
2013-02-22 22:59:00,18.4,15.7,29.89,NE,51,0.0,0.0,89,0.00,,,0.00,VWS V12.07,2013-02-23 04:59:00,
2013-02-22 23:04:00,18.4,15.7,29.89,NE,51,0.0,0.0,89,0.00,,,0.00,VWS V12.07,2013-02-23 05:04:00,
2013-02-22 23:09:00,18.4,15.7,29.89,NE,51,0.0,0.0,89,0.00,,,0.00,VWS V12.07,2013-02-23 05:09:00,
2013-02-22 23:14:00,18.4,15.7,29.89,NE,51,0.0,0.0,89,0.00,,,0.00,VWS V12.07,2013-02-23 05:14:00,
2013-02-22 23:24:00,18.4,15.7,29.89,NE,51,0.0,0.0,89,0.00,,,0.00,VWS V12.07,2013-02-23 05:24:00,
2013-02-22 23:29:00,18.4,15.7,29.89,NE,51,0.0,0.0,89,0.00,,,0.00,VWS V12.07,2013-02-23 05:29:00,
2013-02-22 23:34:00,18.4,15.7,29.89,NE,51,0.0,0.0,89,0.00,,,0.00,VWS V12.07,2013-02-23 05:34:00,
2013-02-22 23:39:00,18.4,15.7,29.89,NE,51,0.0,0.0,89,0.00,,,0.00,VWS V12.07,2013-02-23 05:39:00,
2013-02-22 23:49:00,18.4,15.7,29.89,NE,51,0.0,0.0,89,0.00,,,0.00,VWS V12.07,2013-02-23 05:49:00,
2013-02-22 23:54:00,18.4,15.7,29.89,NE,51,0.0,0.0,89,0.00,,,0.00,VWS V12.07,2013-02-23 05:54:00,
2013-02-22 23:59:00,18.4,15.7,29.89,NE,51,0.0,0.0,89,0.00,,,0.00,VWS V12.07,2013-02-23 05:59:00,